PBO Station Position Time Series. Reference Frame : NAM14
Format Version,1.1.0
4-character ID,P226
Station name,ReidHillVWCN2006
Begin Date, 2006-05-25
End Date, 2019-10-07
Release Date, 2019-10-08
Reference position, 37.3367761995 North Latitude, -121.8255867457 East Longitude, 5.06362 meters elevation,
Date, North (mm), East (mm), Vertical (mm), North Std. Deviation (mm), East Std. Deviation (mm),              Vertical Std. Deviation (mm), Quality,
2006-05-25,0.00, 0.00, 0.00, 2.17, 1.67, 7.80, repro,
2006-05-26,0.33, -0.38, -1.91, 2.11, 1.65, 7.72, repro,
2006-05-27,-1.54, -1.21, 5.30, 2.10, 1.66, 7.64, repro,
2006-05-28,-0.72, 0.07, 2.12, 2.04, 1.61, 7.46, repro,
2006-05-29,0.11, 1.24, 2.44, 2.06, 1.62, 7.50, repro,
2006-05-30,-1.00, 0.15, -2.28, 2.11, 1.65, 7.66, repro,
2006-05-31,-1.52, -0.45, -5.59, 2.15, 1.69, 7.81, repro,
2006-06-01,-1.83, -1.29, -4.34, 2.08, 1.65, 7.64, repro,
2006-06-02,-0.50, 0.05, 2.76, 2.18, 1.71, 7.94, repro,
2006-06-03,-1.25, 0.75, -0.66, 2.14, 1.66, 7.78, repro,
2006-06-04,-1.34, 0.33, -4.71, 2.11, 1.64, 7.65, repro,
2006-06-05,-1.58, -0.58, -2.98, 2.16, 1.68, 7.82, repro,
2006-06-06,-2.24, -0.71, 5.45, 2.12, 1.66, 7.79, repro,
2006-06-07,0.12, 0.09, 4.15, 2.16, 1.66, 7.81, repro,
2006-06-08,-1.28, -0.08, -0.99, 2.05, 1.60, 7.47, repro,
2006-06-09,-1.99, -0.78, -0.74, 2.06, 1.61, 7.49, repro,
2006-06-10,-0.97, -0.85, -2.01, 2.07, 1.62, 7.50, repro,
2006-06-11,-2.09, -1.03, -5.14, 2.09, 1.66, 7.70, repro,
2006-06-12,-1.51, -0.18, 0.37, 2.12, 1.73, 7.88, repro,
2006-06-13,0.56, 0.13, 0.30, 2.09, 1.63, 7.57, repro,
2006-06-14,0.31, -0.36, 5.43, 2.08, 1.61, 7.48, repro,
2006-06-15,-0.52, -1.05, 5.30, 2.06, 1.62, 7.52, repro,
2006-06-16,-0.37, -0.85, 4.62, 2.07, 1.62, 7.53, repro,
2006-06-17,-0.66, -0.85, 7.54, 2.04, 1.62, 7.51, repro,
2006-06-18,-1.08, 0.52, 8.55, 2.10, 1.69, 7.78, repro,
2006-06-19,-1.84, -1.30, 1.83, 2.09, 1.64, 7.71, repro,
2006-06-20,-1.37, -0.63, 5.39, 2.09, 1.66, 7.71, repro,
2006-06-21,-0.96, -1.15, 1.56, 2.09, 1.67, 7.77, repro,
2006-06-22,-1.00, 0.33, 3.91, 2.12, 1.72, 7.90, repro,
2006-06-23,-0.68, -1.69, -1.53, 2.07, 1.66, 7.75, repro,
2006-06-24,-0.81, -1.54, 0.16, 2.08, 1.65, 7.69, repro,
2006-06-25,-1.38, -0.40, -0.87, 2.10, 1.66, 7.75, repro,
2006-06-26,-1.82, -0.28, 5.73, 2.08, 1.67, 7.74, repro,
2006-06-27,-1.37, -1.61, 2.74, 2.15, 1.75, 7.95, repro,
2006-06-28,-0.11, -0.26, 2.41, 2.07, 1.67, 7.74, repro,
2006-06-29,0.85, -0.70, 2.90, 2.05, 1.68, 7.65, repro,
2006-06-30,-1.33, -1.23, 2.06, 2.05, 1.62, 7.62, repro,
2006-07-01,-0.85, -1.05, 4.60, 2.05, 1.63, 7.63, repro,
2006-07-02,-0.44, -0.82, 0.91, 2.08, 1.68, 7.77, repro,
2006-07-03,-1.42, -0.64, -1.22, 2.04, 1.64, 7.67, repro,
2006-07-04,-1.94, -0.98, -3.18, 2.04, 1.63, 7.65, repro,
2006-07-05,-0.79, -0.75, -1.09, 2.05, 1.62, 7.61, repro,
2006-07-06,-1.34, -0.71, -5.53, 2.05, 1.62, 7.60, repro,
2006-07-07,-1.86, -0.36, -1.45, 2.04, 1.62, 7.56, repro,
2006-07-08,-2.05, 0.19, -2.06, 2.03, 1.63, 7.61, repro,
2006-07-09,-0.60, -1.34, -3.32, 2.06, 1.64, 7.75, repro,
2006-07-10,-1.44, -0.14, -4.30, 2.08, 1.63, 7.76, repro,
2006-07-11,-2.12, -1.08, 6.14, 2.06, 1.63, 7.68, repro,
2006-07-12,0.36, -0.55, -0.40, 2.05, 1.63, 7.68, repro,
2006-07-13,-1.76, -0.49, 1.23, 2.09, 1.69, 7.84, repro,
2006-07-14,-1.96, -1.43, 1.40, 2.10, 1.70, 7.94, repro,
2006-07-15,-1.65, -0.66, -1.34, 2.04, 1.63, 7.71, repro,
2006-07-16,-1.70, -0.91, 6.14, 2.06, 1.63, 7.70, repro,
2006-07-17,0.09, -1.56, 2.33, 2.09, 1.68, 7.95, repro,
2006-07-18,-1.69, -0.09, 5.53, 1.99, 1.59, 7.37, repro,
2006-07-19,-1.88, -2.32, -0.26, 1.99, 1.61, 7.45, repro,
2006-07-20,-1.16, -0.87, 0.39, 1.99, 1.61, 7.42, repro,
2006-07-21,0.13, -1.15, -0.94, 2.03, 1.66, 7.58, repro,
2006-07-22,-0.58, 0.56, -0.48, 1.98, 1.59, 7.35, repro,
2006-07-23,-1.91, -0.64, 7.94, 2.01, 1.60, 7.42, repro,
2006-07-24,-0.45, -2.29, 0.44, 1.98, 1.60, 7.40, repro,
2006-07-25,-2.07, -2.12, -0.60, 1.98, 1.59, 7.34, repro,
2006-07-26,-1.28, -1.74, 0.98, 2.03, 1.65, 7.58, repro,
2006-07-27,-0.70, -1.12, -0.32, 1.98, 1.59, 7.35, repro,
2006-07-28,-1.28, -1.58, -3.33, 2.00, 1.59, 7.35, repro,
2006-07-29,-3.42, -0.60, -10.49, 1.98, 1.60, 7.40, repro,
2006-07-30,-1.56, -2.50, -5.91, 2.05, 1.70, 7.84, repro,
2006-07-31,-1.61, 0.33, 7.67, 2.00, 1.61, 7.51, repro,
2006-08-01,-1.88, -1.46, 4.35, 1.99, 1.60, 7.44, repro,
2006-08-02,-1.86, -1.83, -6.80, 2.05, 1.70, 7.84, repro,
2006-08-03,-2.38, -1.80, -4.45, 2.06, 1.71, 7.87, repro,
2006-08-04,-2.94, -2.18, -5.16, 2.08, 1.66, 7.77, repro,
2006-08-05,-1.85, -2.65, -4.71, 2.06, 1.70, 7.88, repro,
2006-08-06,-0.99, -1.73, 0.92, 2.04, 1.65, 7.74, repro,
2006-08-07,-0.01, -1.30, -0.58, 2.02, 1.64, 7.67, repro,
2006-08-08,-2.25, -2.04, -4.08, 2.00, 1.60, 7.44, repro,
2006-08-09,-1.27, -2.33, -7.33, 2.07, 1.73, 7.78, repro,
2006-08-10,-0.73, -2.44, -3.11, 1.99, 1.60, 7.43, repro,
2006-08-11,-2.22, -2.52, -0.50, 2.00, 1.60, 7.45, repro,
2006-08-12,-1.17, -1.82, -0.64, 1.99, 1.60, 7.42, repro,
2006-08-13,-1.20, -2.78, 1.68, 2.08, 1.72, 7.72, repro,
2006-08-14,-2.69, -2.80, -0.31, 2.03, 1.66, 7.60, repro,
2006-08-15,-2.25, -1.68, 4.92, 2.10, 1.68, 7.69, repro,
2006-08-16,-1.76, -2.46, -4.55, 2.00, 1.60, 7.44, repro,
2006-08-17,-0.62, -1.46, -1.45, 2.05, 1.66, 7.65, repro,
2006-08-18,-1.67, -1.28, 0.61, 2.04, 1.70, 7.67, repro,
2006-08-19,-2.30, -1.55, -4.82, 1.96, 1.60, 7.32, repro,
2006-08-20,-2.08, -2.26, 0.06, 1.96, 1.60, 7.30, repro,
2006-08-21,-1.02, -2.56, -3.47, 2.00, 1.63, 7.52, repro,
2006-08-22,-1.79, -2.13, -2.95, 2.01, 1.64, 7.53, repro,
2006-08-23,0.05, -2.57, 1.86, 1.99, 1.63, 7.48, repro,
2006-08-24,-2.25, -1.51, 6.44, 1.99, 1.63, 7.42, repro,
2006-08-25,-2.83, -1.66, -0.90, 2.01, 1.67, 7.70, repro,
2006-08-26,-2.65, -2.39, 0.14, 2.04, 1.69, 7.81, repro,
2006-08-27,-1.47, -3.16, -1.80, 2.11, 1.78, 8.02, repro,
2006-08-28,-2.96, -1.78, -0.11, 2.10, 1.77, 8.01, repro,
2006-08-29,-1.08, -2.08, -1.32, 2.05, 1.72, 7.84, repro,
2006-08-30,-2.21, -2.18, -2.80, 2.12, 1.74, 8.06, repro,
2006-08-31,-2.68, -1.95, -3.74, 2.06, 1.71, 7.87, repro,
2006-09-01,-2.65, -3.76, -6.65, 2.12, 1.76, 8.08, repro,
2006-09-02,-1.68, -3.31, -4.78, 2.09, 1.78, 7.99, repro,
2006-09-03,-1.31, -1.84, -5.27, 2.05, 1.71, 7.82, repro,
2006-09-04,-1.75, -1.96, -8.34, 2.10, 1.74, 7.97, repro,
2006-09-05,-1.98, -1.76, -7.85, 2.12, 1.75, 8.05, repro,
2006-09-06,-1.18, -3.01, -9.12, 2.07, 1.73, 7.92, repro,
2006-09-07,-1.79, -3.29, 3.45, 2.14, 1.83, 8.23, repro,
2006-09-08,-0.38, -2.73, -1.18, 2.10, 1.76, 8.04, repro,
2006-09-09,-2.27, -1.84, 0.49, 2.04, 1.68, 7.65, repro,
2006-09-10,-1.63, -2.16, 0.93, 2.03, 1.68, 7.62, repro,
2006-09-11,-1.77, -2.73, -1.56, 2.08, 1.74, 7.82, repro,
2006-09-12,-1.58, -3.15, -4.64, 2.10, 1.78, 7.96, repro,
2006-09-13,-1.97, -2.60, 2.43, 2.03, 1.67, 7.67, repro,
2006-09-14,-2.28, -5.12, 6.19, 2.15, 1.75, 7.91, repro,
2006-09-15,-0.68, -4.27, 1.53, 2.06, 1.66, 7.60, repro,
2006-09-16,-2.55, -2.55, -0.62, 2.00, 1.63, 7.47, repro,
2006-09-17,-1.89, -2.47, -1.25, 2.00, 1.64, 7.54, repro,
2006-09-18,-2.05, -2.60, 5.12, 2.01, 1.64, 7.52, repro,
2006-09-19,-2.82, -4.18, -1.69, 2.09, 1.76, 7.84, repro,
2006-09-20,-1.83, -4.85, -3.22, 2.01, 1.63, 7.46, repro,
2006-09-21,-2.81, -3.42, 5.53, 2.03, 1.67, 7.63, repro,
2006-09-22,-3.16, -4.63, 1.68, 2.08, 1.71, 7.81, repro,
2006-09-23,-2.23, -3.22, -2.03, 2.05, 1.67, 7.68, repro,
2006-09-24,-1.99, -3.65, -2.77, 2.10, 1.70, 7.78, repro,
2006-09-25,-1.48, -1.52, 1.31, 2.16, 1.75, 7.94, repro,
2006-09-26,-1.77, -3.09, -0.01, 2.09, 1.70, 7.62, repro,
2006-09-27,-2.53, -2.28, -7.29, 2.08, 1.66, 7.59, repro,
2006-09-28,-1.97, -2.04, -7.64, 2.10, 1.71, 7.78, repro,
2006-09-29,-1.32, -2.21, 4.67, 2.06, 1.65, 7.59, repro,
2006-09-30,-1.00, -2.62, 9.96, 2.05, 1.68, 7.71, repro,
2006-10-01,-1.26, -2.07, 7.78, 2.03, 1.64, 7.52, repro,
2006-10-02,-1.99, -3.01, -1.51, 2.08, 1.72, 7.67, repro,
2006-10-03,-3.68, -2.20, -3.23, 2.15, 1.77, 7.92, repro,
2006-10-04,-2.62, -3.46, 4.27, 2.07, 1.67, 7.69, repro,
2006-10-05,-1.84, -0.47, 3.25, 2.02, 1.65, 7.61, repro,
2006-10-06,-2.22, -2.02, 0.56, 2.12, 1.73, 7.94, repro,
2006-10-07,-2.76, -1.54, -7.34, 2.09, 1.72, 7.92, repro,
2006-10-08,-1.86, -2.49, -7.03, 2.09, 1.72, 7.89, repro,
2006-10-09,-1.94, -3.66, -1.95, 2.10, 1.72, 7.93, repro,
2006-10-10,-2.53, -2.64, -5.10, 2.01, 1.64, 7.55, repro,
2006-10-11,-2.58, -2.93, 2.05, 2.03, 1.68, 7.74, repro,
2006-10-12,-2.23, -1.51, 1.63, 2.06, 1.66, 7.60, repro,
2006-10-13,-3.35, -2.54, 5.02, 2.01, 1.63, 7.48, repro,
2006-10-14,-3.24, -2.65, 0.93, 2.00, 1.66, 7.61, repro,
2006-10-15,-2.78, -3.27, 6.06, 2.00, 1.66, 7.65, repro,
2006-10-16,-2.66, -3.61, 16.55, 1.99, 1.63, 7.56, repro,
2006-10-17,-1.74, -2.60, 10.10, 2.05, 1.69, 7.88, repro,
2006-10-18,-1.63, -1.97, 0.79, 2.04, 1.75, 7.87, repro,
2006-10-19,-3.49, -2.18, -0.11, 2.19, 1.74, 8.30, repro,
2006-10-20,-2.18, -2.27, 3.53, 2.32, 1.93, 9.31, repro,
2006-10-21,-1.83, -2.75, -1.38, 2.20, 1.78, 8.34, repro,
2006-10-22,-2.71, -2.14, -1.51, 2.05, 1.72, 7.89, repro,
2006-10-23,-3.14, -2.34, -4.56, 2.04, 1.71, 7.79, repro,
2006-10-24,-3.55, -2.58, -0.90, 2.08, 1.73, 7.86, repro,
2006-10-25,-1.27, -2.74, -4.92, 2.18, 1.76, 8.30, repro,
2006-10-26,-2.54, -1.80, -4.95, 2.04, 1.72, 7.89, repro,
2006-10-27,-1.36, -2.53, -3.28, 1.99, 1.68, 7.68, repro,
2006-10-28,-3.82, -1.59, 0.53, 2.22, 1.80, 8.37, repro,
2006-10-29,-2.78, -2.50, 3.85, 2.00, 1.67, 7.63, repro,
2006-10-30,-3.06, -2.37, 0.39, 1.95, 1.63, 7.43, repro,
2006-10-31,-2.17, -2.91, -0.20, 1.99, 1.66, 7.62, repro,
2006-11-01,-1.04, -2.21, -1.25, 2.00, 1.66, 7.64, repro,
2006-11-02,-2.89, -2.17, 2.98, 2.03, 1.69, 7.81, repro,
2006-11-03,-1.75, -1.80, -0.50, 2.03, 1.72, 7.82, repro,
2006-11-04,-2.19, -1.17, -0.42, 2.08, 1.71, 7.84, repro,
2006-11-05,-1.36, -1.51, -5.15, 2.05, 1.70, 7.79, repro,
2006-11-06,-2.68, -2.38, -8.63, 1.95, 1.64, 7.52, repro,
2006-11-07,-1.31, -2.16, -1.71, 2.13, 1.79, 8.22, repro,
2006-11-08,-0.85, -3.24, 15.04, 2.16, 1.81, 8.22, repro,
2006-11-09,-2.24, -0.99, 5.77, 2.11, 1.78, 8.13, repro,
2006-11-10,-2.00, -2.15, -5.89, 2.04, 1.67, 7.78, repro,
2006-11-11,0.40, -3.23, -5.73, 2.07, 1.70, 7.91, repro,
2006-11-12,-3.13, -1.10, 6.43, 2.11, 1.76, 8.00, repro,
2006-11-13,0.49, -0.32, 13.16, 2.08, 1.72, 7.78, repro,
2006-11-14,-1.44, -2.12, 4.80, 1.97, 1.63, 7.45, repro,
2006-11-15,-2.52, -1.92, -6.92, 1.98, 1.64, 7.48, repro,
2006-11-16,-3.21, -2.24, -7.60, 1.97, 1.63, 7.47, repro,
2006-11-17,-1.34, -2.42, 1.71, 1.96, 1.63, 7.45, repro,
2006-11-18,-2.94, -2.47, -5.51, 2.04, 1.73, 7.69, repro,
2006-11-19,-0.86, -2.30, -6.61, 2.00, 1.70, 7.56, repro,
2006-11-20,-1.87, -1.36, -3.49, 1.97, 1.67, 7.54, repro,
2006-11-21,-2.19, -1.73, -3.33, 1.96, 1.63, 7.40, repro,
2006-11-22,-1.70, -1.80, -9.47, 1.97, 1.65, 7.48, repro,
2006-11-23,-1.15, -1.81, -6.07, 2.03, 1.74, 7.76, repro,
2006-11-24,-1.40, -1.51, -3.42, 2.06, 1.71, 7.78, repro,
2006-11-25,-2.38, -1.81, -2.05, 1.99, 1.64, 7.47, repro,
2006-11-26,-2.40, -2.06, -2.23, 1.99, 1.64, 7.48, repro,
2006-11-27,-3.11, -2.76, -9.06, 1.99, 1.65, 7.53, repro,
2006-11-28,-1.52, -2.25, -4.34, 1.96, 1.63, 7.41, repro,
2006-11-29,-2.32, -1.31, -1.96, 2.00, 1.69, 7.53, repro,
2006-11-30,-2.18, -0.89, -4.84, 1.95, 1.64, 7.38, repro,
2006-12-01,-2.34, -1.05, -11.96, 1.96, 1.64, 7.40, repro,
2006-12-02,-3.26, -1.74, -11.87, 1.96, 1.65, 7.45, repro,
2006-12-03,-1.86, -1.68, -8.27, 1.97, 1.65, 7.50, repro,
2006-12-04,-1.52, -1.92, -13.36, 2.00, 1.65, 7.52, repro,
2006-12-05,-1.44, -1.42, -2.83, 1.98, 1.70, 7.53, repro,
2006-12-06,-1.43, -1.64, -3.97, 2.16, 1.93, 8.27, repro,
2006-12-07,-1.76, -1.87, -6.64, 2.00, 1.73, 7.64, repro,
2006-12-08,-0.51, -1.35, 1.16, 2.00, 1.74, 7.75, repro,
2006-12-09,-2.91, -2.77, -3.17, 2.00, 1.72, 7.66, repro,
2006-12-10,-2.82, -4.61, -0.67, 2.03, 1.73, 7.69, repro,
2006-12-11,-0.96, -2.39, -3.15, 2.00, 1.70, 7.70, repro,
2006-12-12,-1.31, -0.97, -7.27, 2.04, 1.74, 7.69, repro,
2006-12-13,-0.61, -2.47, -9.52, 1.96, 1.68, 7.53, repro,
2006-12-14,-1.31, -0.90, -6.46, 1.95, 1.67, 7.50, repro,
2006-12-15,-0.37, -2.59, -7.98, 2.07, 1.76, 7.92, repro,
2006-12-16,-1.14, -2.68, -2.63, 2.03, 1.74, 7.66, repro,
2006-12-17,-1.11, -2.71, -9.56, 2.04, 1.78, 7.96, repro,
2006-12-18,-1.86, -0.13, -6.41, 2.26, 1.97, 8.87, repro,
2006-12-19,-1.05, -0.41, -1.91, 2.08, 1.90, 8.17, repro,
2006-12-20,-1.81, -0.97, -7.33, 2.16, 1.96, 8.30, repro,
2006-12-21,-1.55, -1.65, -13.64, 1.97, 1.79, 7.69, repro,
2006-12-22,-3.07, -2.35, -0.93, 2.06, 1.85, 8.03, repro,
2006-12-23,-1.03, -0.46, -13.29, 2.05, 1.78, 7.96, repro,
2006-12-24,-0.51, 0.02, -7.75, 1.96, 1.67, 7.50, repro,
2006-12-25,-1.85, -0.39, -11.77, 1.98, 1.72, 7.57, repro,
2006-12-26,-0.61, 0.42, -10.49, 2.03, 1.76, 7.81, repro,
2006-12-27,-0.01, -2.59, -3.64, 2.06, 1.81, 8.03, repro,
2006-12-28,-1.02, -3.84, -9.84, 2.14, 1.91, 8.41, repro,
2006-12-29,-0.40, -3.44, -13.14, 2.01, 1.71, 7.78, repro,
2006-12-30,-0.19, -0.95, -2.91, 2.01, 1.77, 7.80, repro,
2006-12-31,-1.48, -0.65, -3.14, 2.21, 1.99, 8.71, repro,
2007-01-01,-3.14, -1.61, -7.62, 2.25, 2.06, 8.88, repro,
2007-01-02,-2.14, -0.15, -6.12, 2.16, 1.95, 8.44, repro,
2007-01-03,-0.90, -1.01, 0.37, 1.95, 1.70, 7.58, repro,
2007-01-04,0.62, -2.48, -2.87, 1.96, 1.69, 7.53, repro,
2007-01-05,-1.38, -5.59, -3.86, 1.94, 1.68, 7.48, repro,
2007-01-06,-2.66, -0.65, -12.12, 1.97, 1.73, 7.60, repro,
2007-01-07,-0.33, -0.58, -10.66, 2.03, 1.75, 7.68, repro,
2007-01-08,-0.25, -1.03, -13.75, 2.04, 1.73, 7.75, repro,
2007-01-09,-0.96, -0.62, -8.14, 1.97, 1.68, 7.44, repro,
2007-01-10,-0.95, -0.25, -4.05, 2.00, 1.66, 7.46, repro,
2007-01-11,-0.58, -0.71, -7.98, 2.05, 1.67, 7.59, repro,
2007-01-12,-2.38, -3.21, -6.19, 1.95, 1.63, 7.34, repro,
2007-01-13,-0.76, -0.48, -11.73, 1.93, 1.61, 7.22, repro,
2007-01-14,0.31, -0.71, -10.86, 1.92, 1.62, 7.22, repro,
2007-01-15,-0.13, -0.37, -14.23, 1.92, 1.62, 7.24, repro,
2007-01-16,-0.89, -0.69, -9.96, 1.96, 1.62, 7.31, repro,
2007-01-17,-0.40, -0.76, -14.46, 1.96, 1.66, 7.47, repro,
2007-01-18,-1.69, -1.13, -13.52, 1.99, 1.71, 7.55, repro,
2007-01-19,-0.01, -0.72, -6.95, 1.99, 1.63, 7.52, repro,
2007-01-20,-0.77, -0.69, -8.99, 1.99, 1.62, 7.49, repro,
2007-01-21,-1.16, -1.15, -2.06, 2.01, 1.74, 7.65, repro,
2007-01-22,-1.11, 0.03, -5.88, 1.95, 1.66, 7.30, repro,
2007-01-23,-1.09, -0.06, -13.24, 1.94, 1.64, 7.30, repro,
2007-01-24,-1.25, -0.67, -9.40, 1.95, 1.66, 7.28, repro,
2007-01-25,-1.46, -0.47, -16.65, 1.96, 1.65, 7.26, repro,
2007-01-26,-1.76, -0.96, -7.39, 1.93, 1.62, 7.19, repro,
2007-01-27,-1.69, -2.26, -12.61, 1.91, 1.62, 7.18, repro,
2007-01-28,-0.63, -0.65, -7.57, 1.92, 1.60, 7.12, repro,
2007-01-29,-1.40, -0.55, -10.04, 1.95, 1.66, 7.24, repro,
2007-01-30,-1.53, -0.63, -10.86, 1.93, 1.60, 7.12, repro,
2007-01-31,-3.05, -0.44, -0.84, 1.92, 1.60, 7.11, repro,
2007-02-01,-1.98, 0.14, -5.68, 1.94, 1.66, 7.34, repro,
2007-02-02,-1.68, 0.23, -5.85, 1.94, 1.60, 7.23, repro,
2007-02-03,-1.67, 0.19, -7.97, 1.95, 1.62, 7.29, repro,
2007-02-04,-1.83, -0.01, -9.22, 1.92, 1.60, 7.12, repro,
2007-02-05,-1.67, 0.00, -8.16, 1.92, 1.61, 7.15, repro,
2007-02-06,-2.17, -1.53, -13.12, 1.96, 1.63, 7.26, repro,
2007-02-07,-1.06, -0.03, -8.53, 1.91, 1.60, 7.14, repro,
2007-02-08,-1.28, -0.06, -4.31, 1.99, 1.66, 7.47, repro,
2007-02-09,-1.18, -1.06, -6.62, 1.95, 1.67, 7.42, repro,
2007-02-10,-0.02, -0.12, -4.69, 1.99, 1.63, 7.31, repro,
2007-02-11,-3.22, -3.72, 1.68, 1.93, 1.61, 7.16, repro,
2007-02-12,-1.59, -0.47, -15.12, 1.90, 1.60, 7.14, repro,
2007-02-13,-2.22, -0.03, -5.28, 1.96, 1.69, 7.40, repro,
2007-02-14,-2.07, 0.72, -6.14, 1.95, 1.64, 7.22, repro,
2007-02-15,-0.95, 0.48, -6.27, 1.96, 1.66, 7.30, repro,
2007-02-16,-0.88, 0.77, -10.27, 1.93, 1.62, 7.19, repro,
2007-02-17,-3.54, 0.56, -4.32, 1.96, 1.66, 7.27, repro,
2007-02-18,-1.68, -0.65, -4.42, 1.92, 1.61, 7.22, repro,
2007-02-19,-1.87, 0.08, 0.18, 1.94, 1.60, 7.16, repro,
2007-02-20,-3.26, 0.09, 0.87, 1.92, 1.60, 7.15, repro,
2007-02-21,-0.60, -0.19, -4.13, 1.93, 1.62, 7.23, repro,
2007-02-22,-0.48, 0.25, -2.53, 1.95, 1.62, 7.29, repro,
2007-02-23,-0.52, -0.39, -10.76, 2.01, 1.69, 7.49, repro,
2007-02-24,-3.02, 0.15, -4.80, 1.96, 1.64, 7.27, repro,
2007-02-25,-3.46, -0.06, -7.71, 1.94, 1.60, 7.19, repro,
2007-02-26,-2.54, 0.97, -3.19, 1.93, 1.61, 7.16, repro,
2007-02-27,-3.02, 0.16, 3.28, 1.92, 1.61, 7.17, repro,
2007-02-28,-1.99, -0.38, -1.98, 1.93, 1.60, 7.15, repro,
2007-03-01,-1.83, 1.77, -7.47, 1.99, 1.67, 7.45, repro,
2007-03-02,-1.63, 1.56, -11.97, 1.98, 1.66, 7.42, repro,
2007-03-03,-1.25, 1.53, -11.36, 1.96, 1.64, 7.31, repro,
2007-03-04,-0.69, 1.11, -10.34, 1.94, 1.64, 7.26, repro,
2007-03-05,-0.60, 1.44, -4.26, 1.95, 1.64, 7.29, repro,
2007-03-06,-1.32, 0.47, -8.69, 1.94, 1.63, 7.28, repro,
2007-03-07,-2.05, 0.88, 0.96, 1.98, 1.68, 7.46, repro,
2007-03-08,-1.59, 0.52, -3.13, 1.96, 1.64, 7.39, repro,
2007-03-09,-0.83, -1.00, -6.96, 1.96, 1.65, 7.38, repro,
2007-03-10,-0.52, 2.05, -6.32, 2.00, 1.67, 7.56, repro,
2007-03-11,-1.35, 0.72, -8.53, 1.94, 1.63, 7.27, repro,
2007-03-12,-1.83, 0.55, -7.34, 1.95, 1.64, 7.33, repro,
2007-03-13,-1.80, 0.02, -4.09, 1.97, 1.66, 7.41, repro,
2007-03-14,-0.95, 0.27, -9.72, 1.96, 1.65, 7.35, repro,
2007-03-15,-0.87, 1.50, -6.32, 1.99, 1.68, 7.46, repro,
2007-03-16,-2.04, -0.73, -5.86, 1.97, 1.67, 7.30, repro,
2007-03-17,-1.39, 0.36, -6.93, 1.92, 1.58, 7.06, repro,
2007-03-18,-1.82, -0.04, 0.78, 1.97, 1.64, 7.38, repro,
2007-03-19,-1.53, 0.56, -3.10, 1.97, 1.63, 7.29, repro,
2007-03-20,-2.29, 0.08, 0.68, 2.03, 1.67, 7.47, repro,
2007-03-21,-0.49, -0.90, -3.10, 2.03, 1.65, 7.44, repro,
2007-03-22,-2.93, -1.34, -3.89, 1.95, 1.62, 7.27, repro,
2007-03-23,-1.74, -1.69, -2.06, 1.98, 1.68, 7.43, repro,
2007-03-24,-1.80, -1.72, 1.58, 1.96, 1.63, 7.37, repro,
2007-03-25,-2.23, -0.28, 0.87, 1.94, 1.59, 7.18, repro,
2007-03-26,-4.06, -0.60, -1.63, 1.93, 1.58, 7.12, repro,
2007-03-27,-1.32, -1.03, -7.85, 2.00, 1.65, 7.44, repro,
2007-03-28,-0.98, -0.06, -4.04, 1.99, 1.61, 7.28, repro,
2007-03-29,-3.42, -0.27, -5.52, 1.96, 1.63, 7.28, repro,
2007-03-30,-2.59, -0.65, -8.04, 1.95, 1.59, 7.20, repro,
2007-03-31,-2.08, -1.04, -3.08, 1.99, 1.69, 7.50, repro,
2007-04-01,-2.61, -0.79, -1.98, 1.97, 1.64, 7.29, repro,
2007-04-02,-3.55, -0.77, -4.57, 1.95, 1.62, 7.28, repro,
2007-04-03,-1.16, -0.21, -7.97, 1.96, 1.63, 7.29, repro,
2007-04-04,-2.58, -0.56, -6.62, 2.09, 1.80, 7.75, repro,
2007-04-05,-3.35, -0.02, -5.17, 2.04, 1.74, 7.64, repro,
2007-04-06,-2.84, -0.20, -4.77, 2.03, 1.71, 7.58, repro,
2007-04-07,-1.89, -1.45, 0.56, 2.01, 1.67, 7.48, repro,
2007-04-08,-3.93, -1.93, 5.16, 1.94, 1.59, 7.12, repro,
2007-04-09,-0.64, -0.50, -3.91, 1.94, 1.59, 7.09, repro,
2007-04-10,-1.85, -1.53, -3.45, 1.98, 1.63, 7.36, repro,
2007-04-11,-4.79, -1.99, 6.09, 1.98, 1.63, 7.28, repro,
2007-04-12,-1.97, -1.99, -9.63, 1.95, 1.59, 7.21, repro,
2007-04-13,-3.22, -1.56, -10.42, 1.99, 1.64, 7.33, repro,
2007-04-14,-3.21, -1.70, 1.75, 1.94, 1.60, 7.16, repro,
2007-04-15,-2.46, -0.78, -0.53, 1.95, 1.59, 7.18, repro,
2007-04-16,-3.48, -1.68, -2.81, 1.96, 1.58, 7.21, repro,
2007-04-17,-3.35, -1.71, -6.25, 1.95, 1.59, 7.19, repro,
2007-04-18,-3.14, -1.84, -2.19, 1.95, 1.59, 7.20, repro,
2007-04-19,-2.90, -1.99, -6.50, 1.93, 1.59, 7.14, repro,
2007-04-20,-2.25, -2.70, 1.62, 1.97, 1.63, 7.24, repro,
2007-04-21,-2.28, -1.57, -1.84, 1.95, 1.58, 7.17, repro,
2007-04-22,-3.35, -3.22, -1.35, 1.96, 1.59, 7.22, repro,
2007-04-23,-3.46, -1.67, -1.78, 2.01, 1.66, 7.40, repro,
2007-04-24,-3.13, -2.30, -14.83, 2.04, 1.72, 7.55, repro,
2007-04-25,-1.90, -2.08, -6.60, 1.99, 1.62, 7.33, repro,
2007-04-26,-2.27, -1.73, -6.43, 1.97, 1.59, 7.19, repro,
2007-04-27,-3.71, -1.82, -5.58, 1.95, 1.57, 7.16, repro,
2007-04-28,-2.56, -3.27, -4.19, 1.97, 1.58, 7.20, repro,
2007-04-29,-3.54, -2.99, -12.09, 1.95, 1.59, 7.19, repro,
2007-04-30,-2.85, -2.08, -8.26, 1.96, 1.59, 7.24, repro,
2007-05-01,-2.15, -1.89, -5.93, 1.98, 1.59, 7.25, repro,
2007-05-02,-3.19, -2.08, -7.22, 2.02, 1.58, 7.37, repro,
2007-05-03,-2.64, -2.92, -5.24, 2.09, 1.63, 7.60, repro,
2007-05-04,-2.62, -3.22, -1.97, 1.97, 1.58, 7.22, repro,
2007-05-05,-3.42, -2.14, -5.46, 1.99, 1.64, 7.37, repro,
2007-05-06,-2.33, -3.87, -5.50, 1.98, 1.59, 7.26, repro,
2007-05-07,-3.28, -2.15, -3.99, 1.97, 1.58, 7.22, repro,
2007-05-08,-2.34, -2.45, -2.66, 1.99, 1.62, 7.32, repro,
2007-05-09,-3.64, -2.51, -6.97, 2.00, 1.62, 7.35, repro,
2007-05-10,-1.50, -3.17, -8.64, 2.07, 1.65, 7.65, repro,
2007-05-11,-1.83, -2.47, -14.89, 2.07, 1.66, 7.68, repro,
2007-05-12,-2.57, -2.36, -5.53, 2.01, 1.63, 7.44, repro,
2007-05-13,-2.39, -2.86, -10.27, 2.02, 1.60, 7.28, repro,
2007-05-14,-3.06, -2.64, -10.06, 1.99, 1.60, 7.28, repro,
2007-05-15,-2.94, -3.04, -5.06, 1.97, 1.58, 7.18, repro,
2007-05-16,-2.99, -2.89, -5.78, 1.97, 1.58, 7.20, repro,
2007-05-17,-2.80, -2.45, -8.74, 2.03, 1.67, 7.58, repro,
2007-05-18,-3.45, -3.30, -6.46, 2.04, 1.65, 7.50, repro,
2007-05-19,-3.15, -2.32, -7.84, 2.00, 1.61, 7.26, repro,
2007-05-20,-2.37, -2.69, -4.89, 2.07, 1.69, 7.49, repro,
2007-05-21,-2.41, -3.43, -1.02, 2.00, 1.61, 7.33, repro,
2007-05-22,-3.18, -2.86, -4.15, 2.01, 1.62, 7.34, repro,
2007-05-23,-2.07, -2.45, -8.90, 2.01, 1.61, 7.33, repro,
2007-05-24,-2.53, -3.38, -3.28, 2.10, 1.71, 7.66, repro,
2007-05-25,-3.32, -2.94, -7.35, 1.98, 1.59, 7.21, repro,
2007-05-26,-2.70, -1.90, -5.75, 2.02, 1.63, 7.35, repro,
2007-05-27,-3.18, -3.36, -4.94, 1.98, 1.59, 7.23, repro,
2007-05-28,-3.95, -3.17, -7.63, 2.03, 1.63, 7.43, repro,
2007-05-29,-3.91, -2.87, -7.14, 2.03, 1.64, 7.33, repro,
2007-05-30,-3.03, -3.47, -9.19, 2.03, 1.58, 7.30, repro,
2007-05-31,-3.08, -2.97, -7.81, 2.06, 1.65, 7.47, repro,
2007-06-01,-3.44, -3.51, -5.57, 2.03, 1.64, 7.35, repro,
2007-06-02,-3.64, -3.84, -4.74, 1.97, 1.59, 7.21, repro,
2007-06-03,-3.92, -3.39, -4.41, 1.97, 1.58, 7.17, repro,
2007-06-04,-4.39, -3.12, 0.24, 1.97, 1.58, 7.20, repro,
2007-06-05,-2.94, -3.06, -6.44, 2.02, 1.62, 7.46, repro,
2007-06-06,-4.11, -4.19, 7.36, 1.97, 1.58, 7.19, repro,
2007-06-07,-2.21, -2.80, -0.81, 1.98, 1.59, 7.22, repro,
2007-06-08,-3.11, -3.83, -7.96, 1.96, 1.59, 7.16, repro,
2007-06-09,-3.85, -4.25, -3.61, 1.99, 1.63, 7.34, repro,
2007-06-10,-4.08, -2.82, -9.51, 2.00, 1.60, 7.35, repro,
2007-06-11,-2.13, -4.76, -8.41, 2.01, 1.69, 7.43, repro,
2007-06-12,-3.36, -3.62, -0.45, 2.06, 1.77, 7.82, repro,
2007-06-13,-2.31, -3.78, -11.76, 2.00, 1.64, 7.31, repro,
2007-06-14,-2.31, -3.88, -13.72, 2.00, 1.63, 7.24, repro,
2007-06-15,-2.39, -3.29, -9.25, 1.98, 1.59, 7.25, repro,
2007-06-16,-3.03, -3.06, -11.04, 1.97, 1.59, 7.21, repro,
2007-06-17,-3.53, -3.02, -5.23, 1.96, 1.57, 7.15, repro,
2007-06-18,-2.57, -3.00, -2.44, 1.99, 1.63, 7.30, repro,
2007-06-19,-3.71, -3.94, -10.22, 1.97, 1.59, 7.22, repro,
2007-06-20,-3.82, -3.19, -15.87, 1.97, 1.59, 7.22, repro,
2007-06-21,-2.94, -3.42, -8.47, 1.97, 1.58, 7.19, repro,
2007-06-22,-3.14, -3.62, -11.13, 1.97, 1.58, 7.18, repro,
2007-06-23,-2.49, -4.13, -13.41, 1.99, 1.64, 7.50, repro,
2007-06-24,-3.23, -3.42, -12.01, 1.99, 1.64, 7.47, repro,
2007-06-25,-2.43, -4.33, -13.14, 1.97, 1.58, 7.21, repro,
2007-06-26,-2.25, -4.60, -16.21, 2.02, 1.64, 7.42, repro,
2007-06-27,-2.50, -4.63, -18.18, 1.97, 1.58, 7.23, repro,
2007-06-28,-3.22, -4.38, -14.88, 1.96, 1.59, 7.23, repro,
2007-06-29,-3.01, -2.93, -13.85, 2.00, 1.65, 7.42, repro,
2007-06-30,-3.30, -3.98, -17.03, 1.96, 1.59, 7.24, repro,
2007-07-01,-3.17, -4.89, -7.79, 1.98, 1.59, 7.26, repro,
2007-07-02,-2.85, -3.94, -5.32, 1.98, 1.57, 7.23, repro,
2007-07-03,-3.36, -3.95, -18.01, 1.99, 1.63, 7.41, repro,
2007-07-04,-3.63, -4.48, -10.15, 1.96, 1.59, 7.26, repro,
2007-07-05,-3.78, -4.97, -15.37, 1.97, 1.60, 7.28, repro,
2007-07-06,-1.65, -3.95, -7.15, 2.01, 1.63, 7.34, repro,
2007-07-07,-3.14, -4.16, -11.98, 1.99, 1.58, 7.25, repro,
2007-07-08,-5.75, -5.36, -11.16, 2.00, 1.63, 7.31, repro,
2007-07-09,-4.54, -3.97, -7.66, 2.00, 1.64, 7.37, repro,
2007-07-10,-4.01, -4.54, -9.53, 1.98, 1.63, 7.39, repro,
2007-07-11,-4.58, -4.00, -10.43, 1.96, 1.60, 7.27, repro,
2007-07-12,-3.45, -3.69, -7.73, 2.03, 1.71, 7.58, repro,